AAL31 KLAX-PHNL

Flight info

Callsign AAL31
Flight time N/A
Altitude 30000
Route SUMMR2 DINTY DUETS 3335N12855W/N0454F320 DADIE R576 DENNS MAGGI3
Aircraft A21N/M-SDE2E3FGHIRWXY/LB1

Departure

Time 2026-04-22 10:39
Airport Los Angeles International Airport (KLAX)

Arrival

Time N/A
Airport Daniel K. Inouye International Airport (PHNL)
Time Latitude Longitude Altitude Speed Heading
2026-04-22 10:15 33.94211 -118.40926 98 ft 0 kts 264°
2026-04-22 10:26 33.94212 -118.40912 99 ft 4 kts 270°
2026-04-22 10:26 33.94208 -118.40881 98 ft 4 kts 295°
2026-04-22 10:27 33.94193 -118.40856 99 ft 4 kts 320°
2026-04-22 10:27 33.94171 -118.40838 97 ft 4 kts 330°
2026-04-22 10:27 33.94169 -118.40838 100 ft 4 kts 321°
2026-04-22 10:27 33.94179 -118.40864 98 ft 4 kts 277°
2026-04-22 10:28 33.94168 -118.40876 99 ft 4 kts 194°
2026-04-22 10:28 33.94151 -118.40873 99 ft 4 kts 158°
2026-04-22 10:28 33.94134 -118.40851 98 ft 4 kts 132°
2026-04-22 10:28 33.94111 -118.40838 101 ft 4 kts 170°
2026-04-22 10:29 33.94085 -118.40835 100 ft 4 kts 173°
2026-04-22 10:29 33.94058 -118.40831 100 ft 4 kts 173°
2026-04-22 10:29 33.94031 -118.40827 98 ft 4 kts 173°
2026-04-22 10:29 33.94004 -118.40823 98 ft 4 kts 173°
2026-04-22 10:30 33.93997 -118.40822 98 ft 0 kts 173°
2026-04-22 10:32 33.93988 -118.40820 99 ft 2 kts 171°
2026-04-22 10:32 33.93963 -118.40816 99 ft 5 kts 171°
2026-04-22 10:33 33.93920 -118.40811 98 ft 8 kts 173°
2026-04-22 10:33 33.93874 -118.40764 99 ft 10 kts 134°
2026-04-22 10:33 33.93811 -118.40704 100 ft 13 kts 107°
2026-04-22 10:33 33.93820 -118.40585 100 ft 16 kts 83°
2026-04-22 10:34 33.93831 -118.40445 100 ft 18 kts 83°
2026-04-22 10:34 33.93848 -118.40288 101 ft 20 kts 87°
2026-04-22 10:34 33.93863 -118.40137 101 ft 17 kts 82°
2026-04-22 10:34 33.93877 -118.39998 102 ft 17 kts 83°
2026-04-22 10:35 33.93888 -118.39860 101 ft 16 kts 77°
2026-04-22 10:35 33.93905 -118.39726 100 ft 16 kts 82°
2026-04-22 10:35 33.93921 -118.39590 100 ft 17 kts 84°
2026-04-22 10:35 33.93933 -118.39450 100 ft 17 kts 84°
2026-04-22 10:36 33.93949 -118.39309 99 ft 17 kts 83°
2026-04-22 10:36 33.93964 -118.39165 99 ft 17 kts 83°
2026-04-22 10:36 33.93978 -118.39019 99 ft 18 kts 83°
2026-04-22 10:36 33.93995 -118.38871 99 ft 18 kts 81°
2026-04-22 10:37 33.94008 -118.38720 100 ft 18 kts 84°
2026-04-22 10:37 33.94039 -118.38416 101 ft 19 kts 82°
2026-04-22 10:37 33.94040 -118.38359 101 ft 6 kts 115°
2026-04-22 10:38 33.94002 -118.38328 103 ft 8 kts 168°
2026-04-22 10:38 33.93952 -118.38354 104 ft 9 kts 248°
2026-04-22 10:38 33.93943 -118.38419 104 ft 14 kts 261°
2026-04-22 10:38 33.93898 -118.38857 101 ft 90 kts 263°
2026-04-22 10:39 33.93797 -118.39854 105 ft 148 kts 263°
2026-04-22 10:39 33.93651 -118.41258 250 ft 177 kts 264°
2026-04-22 10:39 33.93489 -118.42714 941 ft 176 kts 261°
2026-04-22 10:39 33.93308 -118.44190 1538 ft 184 kts 264°
2026-04-22 10:40 33.93163 -118.45793 1956 ft 201 kts 265°
2026-04-22 10:40 33.93009 -118.47539 2320 ft 221 kts 265°
2026-04-22 10:40 33.92851 -118.49476 2692 ft 241 kts 265°
2026-04-22 10:40 33.92686 -118.51484 3345 ft 247 kts 265°
2026-04-22 10:41 33.92515 -118.53563 4109 ft 251 kts 265°
2026-04-22 10:41 33.92342 -118.55662 4877 ft 254 kts 265°
2026-04-22 10:41 33.92168 -118.57792 5615 ft 256 kts 265°
2026-04-22 10:41 33.91988 -118.59935 6387 ft 258 kts 265°
2026-04-22 10:42 33.91810 -118.62093 7131 ft 259 kts 265°
2026-04-22 10:42 33.91730 -118.64256 7861 ft 260 kts 270°
2026-04-22 10:42 33.91726 -118.66438 8620 ft 261 kts 270°
2026-04-22 10:42 33.91729 -118.68630 9370 ft 263 kts 270°
2026-04-22 10:43 33.91726 -118.70840 10125 ft 265 kts 270°
2026-04-22 10:43 33.91722 -118.72338 10386 ft 276 kts 270°
2026-04-22 10:43 33.91714 -118.75537 10729 ft 301 kts 269°
2026-04-22 10:43 33.91704 -118.78128 11036 ft 316 kts 269°
2026-04-22 10:44 33.91691 -118.80806 11614 ft 322 kts 269°
2026-04-22 10:44 33.91692 -118.83517 12296 ft 324 kts 270°
2026-04-22 10:44 33.91764 -118.86242 13001 ft 326 kts 271°
2026-04-22 10:44 33.91844 -118.88979 13696 ft 328 kts 271°
2026-04-22 10:45 33.91900 -118.90802 14127 ft 329 kts 271°
2026-04-22 10:45 33.91985 -118.93560 14729 ft 331 kts 271°
2026-04-22 10:45 33.92066 -118.96338 15324 ft 333 kts 271°
2026-04-22 10:45 33.92155 -118.99134 15905 ft 335 kts 272°
2026-04-22 10:46 33.92565 -119.01909 16472 ft 340 kts 285°
2026-04-22 10:46 33.93595 -119.04506 17034 ft 348 kts 296°
2026-04-22 10:46 33.94888 -119.06983 17601 ft 351 kts 298°
2026-04-22 10:46 33.96207 -119.09464 18146 ft 353 kts 297°
2026-04-22 10:47 33.97527 -119.11976 18655 ft 355 kts 297°
2026-04-22 10:47 33.98841 -119.14499 19123 ft 357 kts 297°
2026-04-22 10:47 34.00176 -119.17033 19583 ft 359 kts 300°
2026-04-22 10:47 34.01827 -119.19336 20020 ft 369 kts 312°
2026-04-22 10:48 34.03884 -119.21242 20543 ft 374 kts 317°
2026-04-22 10:48 34.06020 -119.23043 21030 ft 376 kts 317°
2026-04-22 10:48 34.08141 -119.24828 21486 ft 377 kts 317°
2026-04-22 10:48 34.10283 -119.26651 21962 ft 378 kts 317°
2026-04-22 10:49 34.12436 -119.28491 22460 ft 379 kts 317°
2026-04-22 10:49 34.14589 -119.30345 22945 ft 381 kts 317°
2026-04-22 10:49 34.16752 -119.32206 23412 ft 382 kts 317°
2026-04-22 10:49 34.18927 -119.34079 23846 ft 384 kts 317°
2026-04-22 10:50 34.21104 -119.35956 24257 ft 386 kts 316°
2026-04-22 10:50 34.23288 -119.37841 24666 ft 386 kts 316°
2026-04-22 10:50 34.25476 -119.39729 25053 ft 387 kts 316°
2026-04-22 10:50 34.27666 -119.41621 25427 ft 388 kts 316°
2026-04-22 10:51 34.29867 -119.43525 25781 ft 389 kts 316°
2026-04-22 10:51 34.32014 -119.45390 26122 ft 390 kts 316°
2026-04-22 10:51 34.34249 -119.47331 26470 ft 392 kts 316°
2026-04-22 10:51 34.36401 -119.49338 26801 ft 387 kts 310°
2026-04-22 10:52 34.38198 -119.51715 27123 ft 379 kts 300°
2026-04-22 10:52 34.39516 -119.54444 27453 ft 373 kts 290°
2026-04-22 10:52 34.40323 -119.57410 27760 ft 371 kts 280°
2026-04-22 10:52 34.40610 -119.60507 28059 ft 371 kts 270°
2026-04-22 10:53 34.40461 -119.63630 28364 ft 373 kts 266°
2026-04-22 10:53 34.40213 -119.66763 28663 ft 374 kts 266°
2026-04-22 10:53 34.39972 -119.69903 28952 ft 376 kts 266°
2026-04-22 10:53 34.39740 -119.73061 29239 ft 377 kts 266°
2026-04-22 10:54 34.39511 -119.76237 29512 ft 378 kts 266°
2026-04-22 10:54 34.39283 -119.79413 29803 ft 379 kts 266°
2026-04-22 10:54 34.39058 -119.82593 30175 ft 378 kts 266°
2026-04-22 10:54 34.38834 -119.85759 30454 ft 377 kts 266°
2026-04-22 10:55 34.38608 -119.88911 30753 ft 376 kts 266°
2026-04-22 10:55 34.38384 -119.92052 31067 ft 374 kts 266°
2026-04-22 10:55 34.38161 -119.95150 31375 ft 372 kts 266°
2026-04-22 10:55 34.37935 -119.98273 31682 ft 371 kts 266°
2026-04-22 10:56 34.37709 -120.01372 31980 ft 369 kts 266°
2026-04-22 10:56 34.37485 -120.04461 32184 ft 369 kts 266°
2026-04-22 10:56 34.37260 -120.07558 32222 ft 368 kts 266°
2026-04-22 10:57 34.36805 -120.13735 32196 ft 369 kts 266°
2026-04-22 10:57 34.36348 -120.19926 32203 ft 370 kts 266°
2026-04-22 10:58 34.35886 -120.26136 32205 ft 370 kts 266°
2026-04-22 10:58 34.35420 -120.32328 32206 ft 370 kts 266°
2026-04-22 10:59 34.34958 -120.38490 32207 ft 370 kts 266°
2026-04-22 10:59 34.34437 -120.44699 32196 ft 372 kts 262°
2026-04-22 11:00 34.32816 -120.50680 32206 ft 378 kts 249°
2026-04-22 11:00 34.30510 -120.56407 32209 ft 379 kts 249°
2026-04-22 11:01 34.28218 -120.62145 32211 ft 379 kts 249°
2026-04-22 11:01 34.25936 -120.67895 32206 ft 379 kts 249°
2026-04-22 11:02 34.23657 -120.73642 32208 ft 379 kts 249°
2026-04-22 11:02 34.21387 -120.79344 32210 ft 379 kts 249°
2026-04-22 11:03 34.19099 -120.85090 32209 ft 379 kts 249°
2026-04-22 11:03 34.16819 -120.90823 32210 ft 378 kts 249°
2026-04-22 11:04 34.14530 -120.96555 32197 ft 379 kts 249°
2026-04-22 11:04 34.12227 -121.02289 32209 ft 383 kts 248°
2026-04-22 11:05 34.09906 -121.08067 32214 ft 383 kts 248°
2026-04-22 11:05 34.07589 -121.13858 32211 ft 383 kts 248°
2026-04-22 11:06 34.05266 -121.19646 32219 ft 383 kts 248°
2026-04-22 11:06 34.02939 -121.25436 32211 ft 383 kts 248°
2026-04-22 11:07 34.00602 -121.31229 32214 ft 384 kts 248°
2026-04-22 11:07 33.98261 -121.37023 32218 ft 384 kts 248°
2026-04-22 11:08 33.95918 -121.42814 32221 ft 384 kts 248°
2026-04-22 11:08 33.93569 -121.48604 32219 ft 385 kts 248°
2026-04-22 11:09 33.91220 -121.54388 32218 ft 385 kts 247°
2026-04-22 11:09 33.88877 -121.60145 32222 ft 385 kts 247°
2026-04-22 11:10 33.86515 -121.65941 32224 ft 385 kts 247°
2026-04-22 11:10 33.84153 -121.71726 32225 ft 385 kts 247°
2026-04-22 11:11 33.81786 -121.77512 32229 ft 385 kts 247°
2026-04-22 11:11 33.79415 -121.83304 32223 ft 386 kts 247°
2026-04-22 11:12 33.77037 -121.89102 32228 ft 387 kts 247°
2026-04-22 11:12 33.74671 -121.94861 32228 ft 387 kts 247°
2026-04-22 11:13 33.72283 -122.00656 32227 ft 387 kts 247°
2026-04-22 11:13 33.69892 -122.06454 32229 ft 387 kts 247°
2026-04-22 11:14 33.67499 -122.12247 32228 ft 388 kts 247°
2026-04-22 11:14 33.65096 -122.18055 32221 ft 390 kts 246°
2026-04-22 11:15 33.62681 -122.23883 32233 ft 390 kts 246°
2026-04-22 11:15 33.60262 -122.29710 32232 ft 390 kts 246°
2026-04-22 11:16 33.57852 -122.35500 32228 ft 390 kts 246°
2026-04-22 11:16 33.55417 -122.41341 32236 ft 391 kts 246°
2026-04-22 11:17 33.52983 -122.47180 32234 ft 391 kts 246°
2026-04-22 11:17 33.50546 -122.53012 32235 ft 391 kts 246°
2026-04-22 11:18 33.48242 -122.58911 32235 ft 389 kts 253°
2026-04-22 11:18 33.46865 -122.65165 32239 ft 389 kts 257°
2026-04-22 11:19 33.45593 -122.71475 32240 ft 389 kts 257°
2026-04-22 11:19 33.44301 -122.77770 32239 ft 389 kts 257°
2026-04-22 11:20 33.42990 -122.84064 32242 ft 389 kts 257°
2026-04-22 11:20 33.41688 -122.90322 32236 ft 390 kts 257°
2026-04-22 11:21 33.40375 -122.96638 32242 ft 391 kts 257°
2026-04-22 11:21 33.39057 -123.02959 32242 ft 391 kts 257°
2026-04-22 11:22 33.37738 -123.09271 32242 ft 391 kts 257°
2026-04-22 11:22 33.36422 -123.15587 32242 ft 391 kts 257°
2026-04-22 11:23 33.35093 -123.21909 32259 ft 392 kts 257°
2026-04-22 11:23 33.33769 -123.28180 32248 ft 391 kts 257°
2026-04-22 11:24 33.32438 -123.34482 32245 ft 391 kts 256°
2026-04-22 11:24 33.31098 -123.40789 32247 ft 391 kts 256°
2026-04-22 11:25 33.29758 -123.47089 32250 ft 391 kts 256°
2026-04-22 11:25 33.28417 -123.53387 32248 ft 391 kts 256°
2026-04-22 11:26 33.27071 -123.59690 32247 ft 390 kts 256°
2026-04-22 11:26 33.25725 -123.65972 32248 ft 390 kts 256°
2026-04-22 11:27 33.24370 -123.72265 32249 ft 392 kts 256°
2026-04-22 11:27 33.23011 -123.78570 32249 ft 392 kts 256°
2026-04-22 11:28 33.21650 -123.84878 32250 ft 392 kts 256°
2026-04-22 11:28 33.20285 -123.91191 32251 ft 392 kts 256°
2026-04-22 11:29 33.18916 -123.97496 32249 ft 393 kts 256°
2026-04-22 11:29 33.17539 -124.03815 32254 ft 394 kts 256°
2026-04-22 11:30 33.16166 -124.10100 32254 ft 394 kts 256°
2026-04-22 11:30 33.14780 -124.16428 32256 ft 394 kts 256°
2026-04-22 11:31 33.13394 -124.22754 32250 ft 394 kts 256°
2026-04-22 11:31 33.11998 -124.29094 32258 ft 396 kts 256°
2026-04-22 11:32 33.10598 -124.35444 32259 ft 396 kts 256°
2026-04-22 11:32 33.09430 -124.40723 32259 ft 396 kts 256°
2026-04-22 11:33 33.07791 -124.48110 32251 ft 396 kts 255°
2026-04-22 11:33 33.06376 -124.54469 32263 ft 397 kts 255°
2026-04-22 11:34 33.05193 -124.59760 32261 ft 397 kts 255°
2026-04-22 11:34 33.03768 -124.66124 32264 ft 397 kts 255°
2026-04-22 11:35 33.02340 -124.72493 32259 ft 397 kts 255°
2026-04-22 11:35 33.00909 -124.78857 32265 ft 398 kts 255°
2026-04-22 11:36 32.99465 -124.85231 32263 ft 398 kts 255°
2026-04-22 11:36 32.98017 -124.91604 32262 ft 398 kts 255°
2026-04-22 11:37 32.96580 -124.97940 32261 ft 398 kts 255°
2026-04-22 11:37 32.95129 -125.04317 32259 ft 399 kts 255°
2026-04-22 11:38 32.93672 -125.10707 32263 ft 399 kts 255°
2026-04-22 11:38 32.91497 -125.20228 32261 ft 399 kts 255°
2026-04-22 11:39 32.90040 -125.26610 32267 ft 400 kts 255°
2026-04-22 11:39 32.88582 -125.32953 32269 ft 400 kts 255°
2026-04-22 11:40 32.87109 -125.39335 32265 ft 400 kts 255°
2026-04-22 11:40 32.85637 -125.45714 32267 ft 400 kts 255°
2026-04-22 11:41 32.84157 -125.52095 32258 ft 400 kts 255°
2026-04-22 11:41 32.82675 -125.58474 32265 ft 400 kts 255°
2026-04-22 11:42 32.81191 -125.64852 32272 ft 400 kts 255°
2026-04-22 11:42 32.79703 -125.71232 32268 ft 400 kts 255°
2026-04-22 11:43 32.78215 -125.77573 32263 ft 400 kts 255°
2026-04-22 11:43 32.76722 -125.83937 32263 ft 400 kts 254°
2026-04-22 11:44 32.75224 -125.90298 32267 ft 399 kts 254°
2026-04-22 11:44 32.73733 -125.96616 32270 ft 399 kts 254°
2026-04-22 11:45 32.72233 -126.02969 32269 ft 399 kts 254°
2026-04-22 11:45 32.70727 -126.09320 32265 ft 399 kts 254°
2026-04-22 11:46 32.69217 -126.15673 32270 ft 399 kts 254°
2026-04-22 11:46 32.67717 -126.21980 32271 ft 399 kts 254°
2026-04-22 11:47 32.66203 -126.28310 32269 ft 398 kts 254°
2026-04-22 11:47 32.64692 -126.34632 32271 ft 397 kts 254°
2026-04-22 11:48 32.63181 -126.40935 32271 ft 397 kts 254°
2026-04-22 11:48 32.61661 -126.47248 32272 ft 397 kts 254°
2026-04-22 11:49 32.60142 -126.53545 32267 ft 396 kts 254°
2026-04-22 11:49 32.58622 -126.59820 32274 ft 396 kts 254°
2026-04-22 11:50 32.57103 -126.66091 32275 ft 395 kts 254°
2026-04-22 11:50 32.55583 -126.72362 32275 ft 395 kts 254°
2026-04-22 11:51 32.54072 -126.78582 32273 ft 394 kts 254°
2026-04-22 11:51 32.52540 -126.84829 32274 ft 394 kts 254°
2026-04-22 11:52 32.51012 -126.91072 32274 ft 394 kts 254°
2026-04-22 11:52 32.49495 -126.97279 32275 ft 394 kts 254°
2026-04-22 11:53 32.47960 -127.03506 32270 ft 392 kts 254°
2026-04-22 11:53 32.46431 -127.09700 32274 ft 392 kts 254°
2026-04-22 11:54 32.44905 -127.15896 32274 ft 392 kts 254°
2026-04-22 11:54 32.43372 -127.22083 32275 ft 392 kts 254°
2026-04-22 11:55 32.41838 -127.28267 32274 ft 391 kts 254°
2026-04-22 11:55 32.40304 -127.34440 32274 ft 391 kts 254°
2026-04-22 11:56 32.38770 -127.40611 32274 ft 391 kts 254°
2026-04-22 11:56 32.37233 -127.46779 32275 ft 391 kts 254°
2026-04-22 11:57 32.35696 -127.52927 32278 ft 388 kts 254°
2026-04-22 11:57 32.34161 -127.59051 32272 ft 388 kts 254°
2026-04-22 11:58 32.32621 -127.65177 32277 ft 388 kts 254°
2026-04-22 11:58 32.31070 -127.71298 32274 ft 388 kts 254°
2026-04-22 11:59 32.29541 -127.77373 32274 ft 388 kts 254°
2026-04-22 11:59 32.27995 -127.83481 32284 ft 388 kts 254°
2026-04-22 12:00 32.26437 -127.89632 32282 ft 392 kts 254°
2026-04-22 12:00 32.24866 -127.95821 32275 ft 394 kts 253°
2026-04-22 12:01 32.23285 -128.02019 32278 ft 393 kts 253°
2026-04-22 12:01 32.21714 -128.08166 32278 ft 394 kts 253°
2026-04-22 12:02 32.20128 -128.14358 32284 ft 393 kts 253°
2026-04-22 12:02 32.18538 -128.20546 32278 ft 393 kts 253°
2026-04-22 12:03 32.16954 -128.26708 32279 ft 392 kts 253°
2026-04-22 12:03 32.15361 -128.32868 32276 ft 392 kts 253°
2026-04-22 12:04 32.13784 -128.38986 32283 ft 392 kts 253°
2026-04-22 12:04 32.12193 -128.45137 32283 ft 392 kts 253°
2026-04-22 12:05 32.10594 -128.51295 32279 ft 392 kts 253°
2026-04-22 12:05 32.08999 -128.57435 32280 ft 391 kts 253°
2026-04-22 12:06 32.07399 -128.63577 32282 ft 391 kts 253°
2026-04-22 12:06 32.05797 -128.69712 32280 ft 390 kts 253°
2026-04-22 12:07 32.04196 -128.75830 32280 ft 390 kts 253°
2026-04-22 12:07 32.02594 -128.81938 32279 ft 390 kts 253°
2026-04-22 12:08 32.00985 -128.88050 32283 ft 390 kts 253°
2026-04-22 12:08 31.99388 -128.94121 32281 ft 389 kts 253°
2026-04-22 12:09 31.97781 -129.00212 32279 ft 389 kts 253°
2026-04-22 12:09 31.96166 -129.06298 32280 ft 389 kts 253°
2026-04-22 12:10 31.94552 -129.12394 32279 ft 389 kts 253°
2026-04-22 12:10 31.92936 -129.18466 32283 ft 388 kts 253°
2026-04-22 12:11 31.91321 -129.24531 32281 ft 388 kts 253°
2026-04-22 12:11 31.89703 -129.30592 32280 ft 388 kts 253°
2026-04-22 12:12 31.88078 -129.36657 32277 ft 388 kts 253°
2026-04-22 12:12 31.86456 -129.42706 32285 ft 387 kts 253°
2026-04-22 12:13 31.84836 -129.48749 32284 ft 387 kts 253°
2026-04-22 12:13 31.83218 -129.54760 32284 ft 387 kts 253°
2026-04-22 12:14 31.81585 -129.60794 32281 ft 387 kts 253°
2026-04-22 12:14 31.79955 -129.66829 32288 ft 387 kts 253°
2026-04-22 12:15 31.78318 -129.72858 32285 ft 387 kts 253°
2026-04-22 12:15 31.76684 -129.78884 32284 ft 387 kts 253°
2026-04-22 12:16 31.75048 -129.84909 32285 ft 386 kts 252°
2026-04-22 12:16 31.73401 -129.90916 32284 ft 386 kts 252°
2026-04-22 12:17 31.71752 -129.96920 32284 ft 386 kts 252°
2026-04-22 12:17 31.70114 -130.02887 32282 ft 386 kts 252°
2026-04-22 12:18 31.68467 -130.08913 32285 ft 390 kts 252°
2026-04-22 12:18 31.66793 -130.14977 32283 ft 391 kts 252°
2026-04-22 12:19 31.65126 -130.21048 32284 ft 391 kts 252°
2026-04-22 12:19 31.63453 -130.27112 32282 ft 390 kts 252°
2026-04-22 12:20 31.61767 -130.33149 32283 ft 389 kts 252°
2026-04-22 12:20 31.60092 -130.39195 32283 ft 389 kts 252°
2026-04-22 12:21 31.58696 -130.44220 32283 ft 390 kts 252°
2026-04-22 12:21 31.57018 -130.50256 32282 ft 389 kts 252°
2026-04-22 12:22 31.55337 -130.56285 32282 ft 389 kts 252°
2026-04-22 12:22 31.53674 -130.62311 32283 ft 389 kts 252°
2026-04-22 12:23 31.51994 -130.68353 32285 ft 389 kts 252°
2026-04-22 12:23 31.50306 -130.74386 32284 ft 389 kts 252°
2026-04-22 12:24 31.48618 -130.80411 32282 ft 389 kts 252°
2026-04-22 12:24 31.46922 -130.86428 32284 ft 389 kts 252°
2026-04-22 12:25 31.45237 -130.92409 32278 ft 389 kts 252°
2026-04-22 12:25 31.43538 -130.98406 32281 ft 388 kts 252°
2026-04-22 12:26 31.41841 -131.04400 32283 ft 388 kts 252°
2026-04-22 12:26 31.40142 -131.10395 32284 ft 388 kts 252°
2026-04-22 12:27 31.38439 -131.16387 32283 ft 388 kts 252°
2026-04-22 12:27 31.36721 -131.22393 32285 ft 389 kts 252°
2026-04-22 12:28 31.34988 -131.28383 32284 ft 389 kts 251°
2026-04-22 12:28 31.33267 -131.34386 32284 ft 389 kts 252°
2026-04-22 12:29 31.31571 -131.40316 32284 ft 387 kts 252°
2026-04-22 12:29 31.29860 -131.46289 32281 ft 387 kts 251°
2026-04-22 12:30 31.27283 -131.55246 32287 ft 387 kts 251°
2026-04-22 12:31 31.25566 -131.61205 32295 ft 386 kts 251°
2026-04-22 12:31 31.23849 -131.67154 32286 ft 386 kts 251°
2026-04-22 12:32 31.22132 -131.73104 32282 ft 386 kts 251°
2026-04-22 12:32 31.19546 -131.81997 32288 ft 389 kts 251°
2026-04-22 12:33 31.17814 -131.87981 32279 ft 389 kts 251°
2026-04-22 12:33 31.16071 -131.93964 32279 ft 389 kts 251°
2026-04-22 12:34 31.14324 -131.99930 32286 ft 388 kts 251°
2026-04-22 12:34 31.12571 -132.05886 32284 ft 387 kts 251°
2026-04-22 12:35 31.10814 -132.11873 32291 ft 392 kts 251°
2026-04-22 12:35 31.09054 -132.17876 32289 ft 393 kts 251°
2026-04-22 12:36 31.07272 -132.23915 32285 ft 394 kts 251°
2026-04-22 12:36 31.05492 -132.29955 32286 ft 394 kts 251°
2026-04-22 12:37 31.03705 -132.35994 32285 ft 394 kts 251°
2026-04-22 12:37 31.01913 -132.42031 32284 ft 394 kts 251°
2026-04-22 12:38 31.00123 -132.48064 32285 ft 394 kts 251°
2026-04-22 12:38 30.98328 -132.54091 32285 ft 394 kts 251°
2026-04-22 12:39 30.95637 -132.63098 32294 ft 393 kts 251°
2026-04-22 12:40 30.93840 -132.69119 32287 ft 393 kts 251°
2026-04-22 12:40 30.92039 -132.75121 32289 ft 393 kts 251°
2026-04-22 12:41 30.90234 -132.81138 32295 ft 393 kts 251°
2026-04-22 12:41 30.88429 -132.87140 32284 ft 392 kts 251°
2026-04-22 12:42 30.86623 -132.93134 32295 ft 392 kts 250°
2026-04-22 12:42 30.84821 -132.99090 32280 ft 393 kts 250°
2026-04-22 12:43 30.83003 -133.05083 32283 ft 392 kts 250°
2026-04-22 12:43 30.81189 -133.11071 32285 ft 392 kts 250°
2026-04-22 12:44 30.79373 -133.17063 32287 ft 392 kts 250°
2026-04-22 12:44 30.77552 -133.23048 32294 ft 392 kts 250°
2026-04-22 12:45 30.75709 -133.29044 32294 ft 394 kts 250°
2026-04-22 12:45 30.73882 -133.35014 32282 ft 394 kts 250°
2026-04-22 12:46 30.72047 -133.41021 32279 ft 394 kts 250°
2026-04-22 12:46 30.70206 -133.47017 32286 ft 392 kts 250°
2026-04-22 12:47 30.68371 -133.52982 32288 ft 392 kts 250°
2026-04-22 12:47 30.66535 -133.58954 32291 ft 392 kts 250°
2026-04-22 12:48 30.64695 -133.64919 32289 ft 393 kts 250°
2026-04-22 12:48 30.62851 -133.70908 32289 ft 395 kts 250°
2026-04-22 12:49 30.61014 -133.76872 32282 ft 395 kts 250°
2026-04-22 12:49 30.59159 -133.82865 32286 ft 395 kts 250°
2026-04-22 12:50 30.57295 -133.88859 32284 ft 394 kts 249°
2026-04-22 12:50 30.55433 -133.94847 32275 ft 394 kts 249°
2026-04-22 12:51 30.53552 -134.00873 32279 ft 400 kts 250°
2026-04-22 12:51 30.51656 -134.06944 32278 ft 400 kts 250°
2026-04-22 12:52 30.49769 -134.12970 32290 ft 400 kts 250°
2026-04-22 12:52 30.47864 -134.19048 32291 ft 400 kts 250°
2026-04-22 12:53 30.45951 -134.25113 32280 ft 402 kts 249°
2026-04-22 12:53 30.44020 -134.31213 32285 ft 404 kts 249°
2026-04-22 12:54 30.42085 -134.37328 32277 ft 404 kts 249°
2026-04-22 12:54 30.40155 -134.43432 32277 ft 404 kts 249°
2026-04-22 12:55 30.38546 -134.48527 32278 ft 405 kts 249°
2026-04-22 12:55 30.36305 -134.55651 32279 ft 405 kts 249°
2026-04-22 12:56 30.34364 -134.61772 32287 ft 405 kts 249°
2026-04-22 12:56 30.32411 -134.67898 32280 ft 405 kts 249°
2026-04-22 12:57 30.30460 -134.74028 32274 ft 405 kts 249°
2026-04-22 12:57 30.28509 -134.80133 32277 ft 405 kts 249°
2026-04-22 12:58 30.26551 -134.86246 32274 ft 405 kts 249°
2026-04-22 12:58 30.24595 -134.92353 32284 ft 405 kts 249°
2026-04-22 12:59 30.22635 -134.98459 32281 ft 405 kts 249°
2026-04-22 12:59 30.20696 -135.04475 32276 ft 407 kts 249°
2026-04-22 13:00 30.18714 -135.10621 32276 ft 408 kts 249°
2026-04-22 13:00 30.16733 -135.16758 32267 ft 405 kts 249°
2026-04-22 13:01 30.14774 -135.22808 32267 ft 405 kts 249°
2026-04-22 13:01 30.12795 -135.28912 32270 ft 406 kts 249°
2026-04-22 13:02 30.10813 -135.35011 32271 ft 405 kts 249°
2026-04-22 13:02 30.08826 -135.41123 32277 ft 410 kts 249°
2026-04-22 13:03 30.06823 -135.47264 32271 ft 405 kts 249°
2026-04-22 13:03 30.04829 -135.53363 32276 ft 405 kts 249°
2026-04-22 13:04 30.02841 -135.59449 32277 ft 408 kts 249°
2026-04-22 13:04 30.00813 -135.65634 32280 ft 413 kts 249°
2026-04-22 13:05 29.98774 -135.71845 32272 ft 414 kts 249°
2026-04-22 13:05 29.96745 -135.78011 32276 ft 414 kts 249°
2026-04-22 13:06 29.94679 -135.84278 32274 ft 419 kts 249°
2026-04-22 13:06 29.92605 -135.90562 32272 ft 420 kts 249°
2026-04-22 13:07 29.90523 -135.96848 32265 ft 419 kts 249°
2026-04-22 13:07 29.88801 -136.02051 32272 ft 420 kts 249°
2026-04-22 13:08 29.86714 -136.08342 32281 ft 421 kts 249°
2026-04-22 13:08 29.84619 -136.14638 32279 ft 421 kts 249°
2026-04-22 13:09 29.82517 -136.20948 32271 ft 424 kts 249°
2026-04-22 13:09 29.80400 -136.27285 32277 ft 422 kts 249°
2026-04-22 13:10 29.78301 -136.33560 32273 ft 421 kts 249°
2026-04-22 13:10 29.76187 -136.39866 32274 ft 425 kts 249°
2026-04-22 13:11 29.74069 -136.46184 32269 ft 427 kts 249°
2026-04-22 13:11 29.71928 -136.52557 32255 ft 427 kts 249°
2026-04-22 13:12 29.69798 -136.58880 32262 ft 425 kts 249°
2026-04-22 13:12 29.67651 -136.65244 32267 ft 427 kts 249°
2026-04-22 13:13 29.65497 -136.71610 32269 ft 427 kts 249°
2026-04-22 13:13 29.63342 -136.77977 32268 ft 427 kts 249°
2026-04-22 13:14 29.61189 -136.84314 32264 ft 423 kts 249°
2026-04-22 13:14 29.59057 -136.90585 32262 ft 423 kts 249°
2026-04-22 13:15 29.56912 -136.96881 32268 ft 423 kts 249°
2026-04-22 13:15 29.54751 -137.03215 32261 ft 427 kts 249°
2026-04-22 13:16 29.52577 -137.09580 32256 ft 428 kts 249°
2026-04-22 13:16 29.50401 -137.15929 32260 ft 427 kts 249°
2026-04-22 13:17 29.48234 -137.22239 32265 ft 429 kts 249°
2026-04-22 13:17 29.46044 -137.28614 32268 ft 429 kts 249°
2026-04-22 13:18 29.43853 -137.34989 32259 ft 430 kts 249°
2026-04-22 13:18 29.41656 -137.41360 32249 ft 430 kts 249°
2026-04-22 13:19 29.39446 -137.47753 32256 ft 431 kts 249°
2026-04-22 13:19 29.37228 -137.54161 32256 ft 431 kts 249°
2026-04-22 13:20 29.35012 -137.60544 32265 ft 431 kts 249°
2026-04-22 13:20 29.32802 -137.66903 32243 ft 432 kts 249°
2026-04-22 13:21 29.30572 -137.73291 32254 ft 433 kts 249°
2026-04-22 13:21 29.28344 -137.79702 32252 ft 433 kts 249°
2026-04-22 13:22 29.26108 -137.86106 32257 ft 433 kts 249°
2026-04-22 13:22 29.23862 -137.92517 32249 ft 432 kts 249°
2026-04-22 13:23 29.21621 -137.98903 32245 ft 433 kts 249°
2026-04-22 13:23 29.19391 -138.05263 32243 ft 433 kts 249°
2026-04-22 13:24 29.17138 -138.11667 32257 ft 433 kts 249°
2026-04-22 13:24 29.14884 -138.18064 32250 ft 433 kts 249°
2026-04-22 13:25 29.12627 -138.24462 32251 ft 433 kts 249°
2026-04-22 13:25 29.10363 -138.30855 32243 ft 434 kts 249°
2026-04-22 13:26 29.08089 -138.37260 32252 ft 435 kts 249°
2026-04-22 13:26 29.05809 -138.43659 32239 ft 435 kts 249°
2026-04-22 13:27 29.03543 -138.50050 32243 ft 433 kts 249°
2026-04-22 13:27 29.01278 -138.56420 32249 ft 433 kts 249°
2026-04-22 13:28 28.99017 -138.62758 32244 ft 433 kts 249°
2026-04-22 13:28 28.96738 -138.69131 32240 ft 433 kts 249°
2026-04-22 13:29 28.94457 -138.75500 32242 ft 433 kts 249°
2026-04-22 13:29 28.92167 -138.81859 32240 ft 432 kts 249°
2026-04-22 13:30 28.89876 -138.88214 32241 ft 433 kts 249°
2026-04-22 13:30 28.87566 -138.94579 32238 ft 434 kts 249°
2026-04-22 13:31 28.85264 -139.00943 32235 ft 434 kts 249°
2026-04-22 13:31 28.82977 -139.07265 32240 ft 434 kts 249°
2026-04-22 13:32 28.80673 -139.13630 32241 ft 433 kts 249°
2026-04-22 13:32 28.78356 -139.19992 32235 ft 435 kts 249°
2026-04-22 13:33 28.76070 -139.26364 32237 ft 435 kts 249°
2026-04-22 13:33 28.73760 -139.32741 32243 ft 435 kts 249°
2026-04-22 13:34 28.71459 -139.39069 32240 ft 434 kts 249°
2026-04-22 13:34 28.69147 -139.45406 32238 ft 434 kts 249°
2026-04-22 13:35 28.66821 -139.51761 32228 ft 434 kts 249°
2026-04-22 13:35 28.64483 -139.58111 32233 ft 435 kts 249°
2026-04-22 13:36 28.62133 -139.64454 32230 ft 435 kts 249°
2026-04-22 13:36 28.59789 -139.70798 32235 ft 435 kts 249°
2026-04-22 13:37 28.57434 -139.77137 32227 ft 435 kts 249°
2026-04-22 13:37 28.55102 -139.83439 32225 ft 435 kts 249°
2026-04-22 13:38 28.52740 -139.89783 32227 ft 435 kts 249°
2026-04-22 13:38 28.49204 -139.99295 32227 ft 435 kts 249°
2026-04-22 13:39 28.46846 -140.05630 32225 ft 435 kts 249°
2026-04-22 13:39 28.44478 -140.11972 32225 ft 436 kts 249°
2026-04-22 13:40 28.42103 -140.18325 32224 ft 436 kts 249°
2026-04-22 13:40 28.39737 -140.24664 32224 ft 436 kts 249°
2026-04-22 13:41 28.37368 -140.31002 32223 ft 436 kts 249°
2026-04-22 13:41 28.34990 -140.37329 32220 ft 436 kts 249°
2026-04-22 13:42 28.32625 -140.43613 32219 ft 436 kts 249°
2026-04-22 13:42 28.30241 -140.49947 32218 ft 435 kts 249°
2026-04-22 13:43 28.27862 -140.56271 32217 ft 435 kts 249°
2026-04-22 13:43 28.25474 -140.62583 32219 ft 435 kts 249°
2026-04-22 13:44 28.23090 -140.68891 32218 ft 434 kts 249°
2026-04-22 13:44 28.20710 -140.75174 32215 ft 435 kts 249°
2026-04-22 13:45 28.18322 -140.81473 32217 ft 435 kts 249°
2026-04-22 13:45 28.15943 -140.87742 32216 ft 435 kts 249°
2026-04-22 13:46 28.13570 -140.94031 32216 ft 433 kts 249°
2026-04-22 13:46 28.11171 -141.00309 32215 ft 433 kts 249°
2026-04-22 13:47 28.08780 -141.06576 32210 ft 434 kts 249°
2026-04-22 13:47 28.06375 -141.12861 32213 ft 435 kts 249°
2026-04-22 13:48 28.03970 -141.19147 32212 ft 435 kts 249°
2026-04-22 13:48 28.01559 -141.25434 32213 ft 435 kts 249°
2026-04-22 13:49 27.99142 -141.31719 32213 ft 435 kts 249°
2026-04-22 13:49 27.96727 -141.37981 32208 ft 434 kts 249°
2026-04-22 13:50 27.94309 -141.44249 32213 ft 435 kts 249°
2026-04-22 13:50 27.91899 -141.50482 32213 ft 435 kts 249°
2026-04-22 13:51 27.89478 -141.56751 32210 ft 435 kts 249°
2026-04-22 13:51 27.87051 -141.63007 32209 ft 434 kts 248°
2026-04-22 13:52 27.84621 -141.69257 32210 ft 434 kts 248°
2026-04-22 13:52 27.82196 -141.75506 32207 ft 434 kts 248°
2026-04-22 13:53 27.79778 -141.81701 32209 ft 434 kts 248°
2026-04-22 13:53 27.77348 -141.87927 32210 ft 433 kts 248°
2026-04-22 13:54 27.74899 -141.94188 32210 ft 433 kts 248°
2026-04-22 13:54 27.72480 -142.00366 32211 ft 433 kts 248°
2026-04-22 13:55 27.70047 -142.06585 32203 ft 433 kts 248°
2026-04-22 13:55 27.67611 -142.12785 32206 ft 433 kts 248°
2026-04-22 13:56 27.65576 -142.17958 32204 ft 434 kts 248°
2026-04-22 13:56 27.63125 -142.24180 32204 ft 434 kts 248°
2026-04-22 13:57 27.60671 -142.30401 32200 ft 433 kts 248°
2026-04-22 13:57 27.58223 -142.36593 32193 ft 433 kts 248°
2026-04-22 13:58 27.55771 -142.42797 32200 ft 433 kts 248°
2026-04-22 13:58 27.53312 -142.48991 32196 ft 433 kts 248°
2026-04-22 13:59 27.50858 -142.55169 32199 ft 431 kts 248°
2026-04-22 13:59 27.48427 -142.61289 32197 ft 430 kts 248°
2026-04-22 14:00 27.45981 -142.67435 32203 ft 430 kts 248°
2026-04-22 14:00 27.43511 -142.73595 32201 ft 432 kts 248°
2026-04-22 14:01 27.41036 -142.79764 32202 ft 430 kts 248°
2026-04-22 14:01 27.38582 -142.85898 32199 ft 430 kts 248°
2026-04-22 14:02 27.36126 -142.92029 32203 ft 430 kts 248°
2026-04-22 14:02 27.33675 -142.98170 32197 ft 430 kts 248°
2026-04-22 14:03 27.31222 -143.04291 32192 ft 429 kts 248°
2026-04-22 14:03 27.28755 -143.10408 32194 ft 429 kts 248°
2026-04-22 14:04 27.26306 -143.16482 32193 ft 429 kts 248°
2026-04-22 14:04 27.23839 -143.22592 32194 ft 429 kts 248°
2026-04-22 14:05 27.21378 -143.28679 32189 ft 430 kts 248°
2026-04-22 14:06 27.17663 -143.37844 32178 ft 429 kts 248°
2026-04-22 14:06 27.15183 -143.43952 32186 ft 430 kts 248°
2026-04-22 14:07 27.12698 -143.50060 32184 ft 430 kts 248°
2026-04-22 14:07 27.10213 -143.56159 32181 ft 430 kts 248°
2026-04-22 14:08 27.07718 -143.62271 32184 ft 430 kts 248°
2026-04-22 14:08 27.05242 -143.68339 32184 ft 430 kts 248°
2026-04-22 14:09 27.02749 -143.74439 32182 ft 431 kts 248°
2026-04-22 14:09 27.00251 -143.80539 32181 ft 430 kts 248°
2026-04-22 14:10 26.97752 -143.86631 32183 ft 430 kts 248°
2026-04-22 14:10 26.95247 -143.92730 32186 ft 430 kts 248°
2026-04-22 14:11 26.92745 -143.98812 32184 ft 430 kts 248°
2026-04-22 14:11 26.90244 -144.04877 32178 ft 427 kts 248°
2026-04-22 14:12 26.87745 -144.10936 32178 ft 429 kts 248°
2026-04-22 14:12 26.85247 -144.16963 32174 ft 429 kts 248°
2026-04-22 14:13 26.82743 -144.23020 32171 ft 428 kts 248°
2026-04-22 14:13 26.80241 -144.29062 32170 ft 426 kts 248°
2026-04-22 14:14 26.77738 -144.35089 32172 ft 427 kts 248°
2026-04-22 14:14 26.75235 -144.41113 32163 ft 427 kts 248°
2026-04-22 14:15 26.72717 -144.47152 32167 ft 428 kts 248°
2026-04-22 14:15 26.70201 -144.53188 32174 ft 427 kts 248°
2026-04-22 14:16 26.67709 -144.59160 32169 ft 426 kts 248°
2026-04-22 14:16 26.65194 -144.65172 32165 ft 426 kts 248°
2026-04-22 14:17 26.62679 -144.71179 32163 ft 426 kts 248°
2026-04-22 14:17 26.60164 -144.77178 32144 ft 426 kts 248°
2026-04-22 14:18 26.57648 -144.83169 32159 ft 426 kts 248°
2026-04-22 14:18 26.55130 -144.89158 32164 ft 426 kts 248°
2026-04-22 14:19 26.52604 -144.95147 32162 ft 426 kts 248°
2026-04-22 14:19 26.50099 -145.01093 32159 ft 426 kts 248°
2026-04-22 14:20 26.46307 -145.10031 32162 ft 424 kts 248°
2026-04-22 14:20 26.43782 -145.15987 32160 ft 424 kts 248°
2026-04-22 14:21 26.39984 -145.24915 32159 ft 424 kts 248°
2026-04-22 14:22 26.36228 -145.33813 32155 ft 422 kts 249°
2026-04-22 14:23 26.32469 -145.42659 32154 ft 422 kts 249°
2026-04-22 14:23 26.29942 -145.48582 32146 ft 423 kts 249°
2026-04-22 14:24 26.27410 -145.54507 32151 ft 422 kts 249°
2026-04-22 14:24 26.24881 -145.60414 32150 ft 422 kts 249°
2026-04-22 14:25 26.22356 -145.66307 32151 ft 422 kts 249°
2026-04-22 14:25 26.19831 -145.72188 32148 ft 422 kts 249°
2026-04-22 14:26 26.17318 -145.78047 32149 ft 422 kts 249°
2026-04-22 14:26 26.14783 -145.83948 32137 ft 422 kts 249°
2026-04-22 14:27 26.12250 -145.89833 32145 ft 422 kts 249°
2026-04-22 14:27 26.09708 -145.95711 32144 ft 422 kts 249°
2026-04-22 14:28 26.07181 -146.01566 32149 ft 422 kts 249°
2026-04-22 14:28 26.04635 -146.07457 32149 ft 422 kts 249°
2026-04-22 14:29 26.02085 -146.13347 32145 ft 422 kts 249°
2026-04-22 14:29 25.99543 -146.19201 32146 ft 422 kts 249°
2026-04-22 14:30 25.96989 -146.25089 32145 ft 423 kts 249°
2026-04-22 14:30 25.94430 -146.30992 32137 ft 424 kts 248°
2026-04-22 14:31 25.91870 -146.36889 32140 ft 423 kts 248°
2026-04-22 14:31 25.89324 -146.42741 32139 ft 423 kts 248°
2026-04-22 14:32 25.86755 -146.48632 32143 ft 424 kts 248°
2026-04-22 14:32 25.84184 -146.54516 32136 ft 424 kts 248°
2026-04-22 14:33 25.81608 -146.60418 32133 ft 425 kts 248°
2026-04-22 14:33 25.79031 -146.66301 32146 ft 425 kts 248°
2026-04-22 14:34 25.76445 -146.72208 32145 ft 425 kts 248°
2026-04-22 14:34 25.73857 -146.78107 32131 ft 425 kts 248°
2026-04-22 14:35 25.71280 -146.83973 32138 ft 425 kts 248°
2026-04-22 14:35 25.68676 -146.89890 32132 ft 428 kts 248°
2026-04-22 14:36 25.66061 -146.95816 32133 ft 428 kts 248°
2026-04-22 14:36 25.63446 -147.01740 32129 ft 427 kts 248°
2026-04-22 14:37 25.60835 -147.07656 32134 ft 427 kts 248°
2026-04-22 14:37 25.58225 -147.13557 32133 ft 429 kts 248°
2026-04-22 14:38 25.55607 -147.19465 32137 ft 430 kts 248°
2026-04-22 14:38 25.52971 -147.25406 32136 ft 430 kts 248°
2026-04-22 14:39 25.50327 -147.31360 32126 ft 430 kts 248°
2026-04-22 14:39 25.47692 -147.37281 32133 ft 428 kts 248°
2026-04-22 14:40 25.43723 -147.46194 32129 ft 431 kts 248°
2026-04-22 14:40 25.41084 -147.52105 32130 ft 431 kts 248°
2026-04-22 14:41 25.38421 -147.58057 32129 ft 431 kts 248°
2026-04-22 14:41 25.35763 -147.64005 32127 ft 431 kts 248°
2026-04-22 14:42 25.33088 -147.69968 32128 ft 435 kts 248°
2026-04-22 14:42 25.30413 -147.75928 32125 ft 431 kts 247°
2026-04-22 14:43 25.28199 -147.80863 32128 ft 432 kts 247°
2026-04-22 14:43 25.25519 -147.86827 32125 ft 433 kts 247°
2026-04-22 14:44 25.22828 -147.92802 32120 ft 434 kts 247°
2026-04-22 14:44 25.20110 -147.98829 32124 ft 441 kts 248°
2026-04-22 14:45 25.17369 -148.04896 32127 ft 441 kts 248°
2026-04-22 14:45 25.14633 -148.10938 32124 ft 437 kts 247°
2026-04-22 14:46 25.11935 -148.16895 32124 ft 436 kts 247°
2026-04-22 14:46 25.09213 -148.22901 32118 ft 440 kts 248°
2026-04-22 14:47 25.06461 -148.28962 32122 ft 442 kts 248°
2026-04-22 14:47 25.03706 -148.35030 32120 ft 442 kts 248°
2026-04-22 14:48 25.00959 -148.41060 32123 ft 442 kts 248°
2026-04-22 14:48 24.98199 -148.47116 32117 ft 442 kts 248°
2026-04-22 14:49 24.95430 -148.53187 32121 ft 445 kts 248°
2026-04-22 14:49 24.92646 -148.59279 32117 ft 446 kts 248°
2026-04-22 14:50 24.89844 -148.65385 32125 ft 446 kts 248°
2026-04-22 14:50 24.87057 -148.71478 32121 ft 445 kts 248°
2026-04-22 14:51 24.84265 -148.77568 32118 ft 445 kts 248°
2026-04-22 14:51 24.81484 -148.83617 32120 ft 445 kts 248°
2026-04-22 14:52 24.78683 -148.89711 32122 ft 446 kts 248°
2026-04-22 14:52 24.75879 -148.95795 32125 ft 446 kts 248°
2026-04-22 14:53 24.73067 -149.01884 32121 ft 446 kts 248°
2026-04-22 14:53 24.70251 -149.07981 32114 ft 449 kts 248°
2026-04-22 14:54 24.67418 -149.14104 32118 ft 449 kts 248°
2026-04-22 14:54 24.64581 -149.20232 32117 ft 449 kts 248°
2026-04-22 14:55 24.61741 -149.26344 32114 ft 448 kts 248°
2026-04-22 14:55 24.58930 -149.32375 32107 ft 446 kts 248°
2026-04-22 14:56 24.56096 -149.38477 32111 ft 449 kts 248°
2026-04-22 14:56 24.53252 -149.44590 32114 ft 449 kts 248°
2026-04-22 14:57 24.50408 -149.50703 32114 ft 449 kts 248°
2026-04-22 14:57 24.47555 -149.56815 32115 ft 449 kts 248°
2026-04-22 14:58 24.44722 -149.62877 32103 ft 449 kts 248°
2026-04-22 14:58 24.41866 -149.68982 32106 ft 449 kts 248°
2026-04-22 14:59 24.39013 -149.75073 32111 ft 449 kts 248°
2026-04-22 14:59 24.36151 -149.81165 32112 ft 449 kts 248°
2026-04-22 15:00 24.33289 -149.87250 32113 ft 449 kts 248°
2026-04-22 15:00 24.30452 -149.93283 32108 ft 447 kts 248°
2026-04-22 15:01 24.27597 -149.99338 32113 ft 447 kts 248°
2026-04-22 15:01 24.24742 -150.05395 32103 ft 447 kts 248°
2026-04-22 15:02 24.21885 -150.11448 32110 ft 447 kts 248°
2026-04-22 15:02 24.19007 -150.17496 32101 ft 447 kts 248°
2026-04-22 15:03 24.16136 -150.23535 32111 ft 447 kts 248°
2026-04-22 15:03 24.13267 -150.29579 32115 ft 446 kts 248°
2026-04-22 15:04 24.10418 -150.35579 32112 ft 446 kts 248°
2026-04-22 15:04 24.07552 -150.41601 32111 ft 446 kts 248°
2026-04-22 15:05 24.04685 -150.47620 32108 ft 446 kts 248°
2026-04-22 15:05 24.01825 -150.53625 32113 ft 445 kts 248°
2026-04-22 15:06 23.98981 -150.59590 32115 ft 445 kts 248°
2026-04-22 15:06 23.96139 -150.65590 32113 ft 445 kts 248°
2026-04-22 15:07 23.93268 -150.71585 32115 ft 445 kts 248°
2026-04-22 15:07 23.90401 -150.77574 32109 ft 443 kts 248°
2026-04-22 15:08 23.87548 -150.83516 32114 ft 442 kts 248°
2026-04-22 15:08 23.84693 -150.89458 32114 ft 442 kts 248°
2026-04-22 15:09 23.81838 -150.95395 32114 ft 442 kts 248°
2026-04-22 15:09 23.78972 -151.01332 32115 ft 442 kts 248°
2026-04-22 15:10 23.76109 -151.07261 32119 ft 440 kts 247°
2026-04-22 15:10 23.73264 -151.13171 32117 ft 440 kts 247°
2026-04-22 15:11 23.70412 -151.19078 32119 ft 440 kts 247°
2026-04-22 15:11 23.67554 -151.24987 32122 ft 440 kts 247°
2026-04-22 15:12 23.64691 -151.30899 32110 ft 442 kts 247°
2026-04-22 15:12 23.61810 -151.36821 32108 ft 441 kts 247°
2026-04-22 15:13 23.58956 -151.42693 32108 ft 441 kts 247°
2026-04-22 15:13 23.56075 -151.48603 32114 ft 441 kts 246°
2026-04-22 15:14 23.53195 -151.54510 32112 ft 441 kts 247°
2026-04-22 15:14 23.50313 -151.60419 32109 ft 441 kts 246°
2026-04-22 15:15 23.47430 -151.66323 32108 ft 441 kts 246°
2026-04-22 15:15 23.44555 -151.72237 32112 ft 442 kts 246°
2026-04-22 15:16 23.41664 -151.78146 32115 ft 442 kts 246°
2026-04-22 15:16 23.38776 -151.84057 32114 ft 442 kts 246°
2026-04-22 15:17 23.35883 -151.89958 32114 ft 442 kts 246°
2026-04-22 15:17 23.32986 -151.95859 32111 ft 441 kts 246°
2026-04-22 15:18 23.30094 -152.01745 32115 ft 441 kts 246°
2026-04-22 15:18 23.27176 -152.07618 32112 ft 441 kts 246°
2026-04-22 15:19 23.24295 -152.13455 32109 ft 441 kts 246°
2026-04-22 15:19 23.21391 -152.19334 32112 ft 441 kts 246°
2026-04-22 15:20 23.18492 -152.25213 32114 ft 441 kts 246°
2026-04-22 15:20 23.15587 -152.31081 32112 ft 441 kts 246°
2026-04-22 15:21 23.12685 -152.36953 32112 ft 440 kts 246°
2026-04-22 15:21 23.09797 -152.42770 32112 ft 440 kts 246°
2026-04-22 15:22 23.06894 -152.48641 32111 ft 441 kts 246°
2026-04-22 15:22 23.04000 -152.54504 32104 ft 440 kts 246°
2026-04-22 15:23 23.01104 -152.60295 32112 ft 440 kts 246°
2026-04-22 15:23 22.98172 -152.66134 32113 ft 440 kts 246°
2026-04-22 15:24 22.95237 -152.71969 32109 ft 440 kts 246°
2026-04-22 15:24 22.92318 -152.77806 32114 ft 440 kts 246°
2026-04-22 15:25 22.89411 -152.83592 32106 ft 440 kts 246°
2026-04-22 15:25 22.86481 -152.89419 32105 ft 440 kts 246°
2026-04-22 15:26 22.83534 -152.95240 32108 ft 440 kts 246°
2026-04-22 15:26 22.80588 -153.01064 32107 ft 440 kts 246°
2026-04-22 15:27 22.77670 -153.06884 32108 ft 440 kts 246°
2026-04-22 15:27 22.74731 -153.12715 32109 ft 440 kts 246°
2026-04-22 15:28 22.71783 -153.18536 32104 ft 441 kts 246°
2026-04-22 15:28 22.68837 -153.24360 32108 ft 441 kts 246°
2026-04-22 15:29 22.65888 -153.30190 32110 ft 441 kts 246°
2026-04-22 15:30 22.61945 -153.37939 32109 ft 441 kts 246°
2026-04-22 15:30 22.58501 -153.44694 32107 ft 441 kts 246°
2026-04-22 15:31 22.55544 -153.50516 32109 ft 442 kts 246°
2026-04-22 15:31 22.52572 -153.56349 32106 ft 442 kts 246°
2026-04-22 15:32 22.50093 -153.61198 32113 ft 442 kts 245°
2026-04-22 15:32 22.47114 -153.67015 32111 ft 442 kts 246°
2026-04-22 15:33 22.44139 -153.72838 32102 ft 442 kts 246°
2026-04-22 15:33 22.41158 -153.78657 32105 ft 442 kts 245°
2026-04-22 15:34 22.38182 -153.84474 32103 ft 441 kts 246°
2026-04-22 15:34 22.36989 -153.87502 32098 ft 435 kts 257°
2026-04-22 15:34 22.36402 -153.90682 32101 ft 429 kts 269°
2026-04-22 15:35 22.36442 -153.97089 32111 ft 426 kts 275°
2026-04-22 15:35 22.36636 -154.03443 32107 ft 426 kts 275°
2026-04-22 15:36 22.36780 -154.09882 32102 ft 430 kts 274°
2026-04-22 15:36 22.36914 -154.16351 32104 ft 430 kts 274°
2026-04-22 15:37 22.37050 -154.22812 32102 ft 430 kts 274°
2026-04-22 15:37 22.37177 -154.29282 32107 ft 431 kts 274°
2026-04-22 15:38 22.37292 -154.35750 32101 ft 430 kts 274°
2026-04-22 15:38 22.37484 -154.45430 32104 ft 431 kts 274°
2026-04-22 15:39 22.37599 -154.51910 32106 ft 431 kts 274°
2026-04-22 15:39 22.37717 -154.58392 32107 ft 431 kts 274°
2026-04-22 15:40 22.37827 -154.64870 32104 ft 431 kts 274°
2026-04-22 15:40 22.37942 -154.71343 32104 ft 431 kts 274°
2026-04-22 15:41 22.38051 -154.77822 32107 ft 431 kts 274°
2026-04-22 15:41 22.38159 -154.84295 32107 ft 431 kts 274°
2026-04-22 15:42 22.38259 -154.90778 32108 ft 431 kts 274°
2026-04-22 15:42 22.38357 -154.97259 32108 ft 431 kts 274°
2026-04-22 15:43 22.38457 -155.03694 32107 ft 431 kts 274°
2026-04-22 15:43 22.38555 -155.10179 32107 ft 431 kts 274°
2026-04-22 15:44 22.38648 -155.16667 32107 ft 431 kts 274°
2026-04-22 15:44 22.38739 -155.23144 32106 ft 431 kts 274°
2026-04-22 15:45 22.38824 -155.29627 32104 ft 431 kts 274°
2026-04-22 15:45 22.38912 -155.36110 32100 ft 433 kts 273°
2026-04-22 15:46 22.38994 -155.42618 32106 ft 433 kts 273°
2026-04-22 15:46 22.39074 -155.49084 32105 ft 433 kts 273°
2026-04-22 15:47 22.39149 -155.55582 32104 ft 433 kts 273°
2026-04-22 15:47 22.39226 -155.62096 32103 ft 433 kts 273°
2026-04-22 15:48 22.39300 -155.68617 32108 ft 434 kts 273°
2026-04-22 15:48 22.39372 -155.75146 32107 ft 434 kts 273°
2026-04-22 15:49 22.39440 -155.81663 32106 ft 434 kts 273°
2026-04-22 15:49 22.39501 -155.88132 32100 ft 434 kts 273°
2026-04-22 15:50 22.39567 -155.94646 32101 ft 434 kts 272°
2026-04-22 15:50 22.39628 -156.01173 32104 ft 435 kts 272°
2026-04-22 15:51 22.39687 -156.07705 32104 ft 434 kts 272°
2026-04-22 15:51 22.39734 -156.14226 32104 ft 434 kts 272°
2026-04-22 15:52 22.39658 -156.20756 32100 ft 436 kts 265°
2026-04-22 15:52 22.38989 -156.23966 32098 ft 441 kts 253°
2026-04-22 15:52 22.37668 -156.26969 32099 ft 446 kts 240°
2026-04-22 15:53 22.33824 -156.32162 31741 ft 437 kts 232°
2026-04-22 15:53 22.31846 -156.34656 31489 ft 435 kts 232°
2026-04-22 15:53 22.29896 -156.37152 31247 ft 434 kts 233°
2026-04-22 15:54 22.27963 -156.39656 31009 ft 433 kts 233°
2026-04-22 15:54 22.26044 -156.42161 30769 ft 432 kts 233°
2026-04-22 15:54 22.24123 -156.44661 30543 ft 432 kts 233°
2026-04-22 15:54 22.22205 -156.47157 30312 ft 431 kts 233°
2026-04-22 15:55 22.20290 -156.49647 30067 ft 430 kts 233°
2026-04-22 15:55 22.18385 -156.52134 29795 ft 429 kts 233°
2026-04-22 15:55 22.16511 -156.54574 29533 ft 427 kts 233°
2026-04-22 15:55 22.14618 -156.57032 29263 ft 425 kts 233°
2026-04-22 15:56 22.12734 -156.59475 28989 ft 422 kts 232°
2026-04-22 15:56 22.10861 -156.61904 28602 ft 419 kts 232°
2026-04-22 15:56 22.09005 -156.64311 28157 ft 415 kts 232°
2026-04-22 15:56 22.07165 -156.66693 27698 ft 411 kts 232°
2026-04-22 15:57 22.05337 -156.69057 27204 ft 409 kts 232°
2026-04-22 15:57 22.03521 -156.71402 26716 ft 407 kts 232°
2026-04-22 15:57 22.01705 -156.73742 26234 ft 406 kts 232°
2026-04-22 15:57 21.99902 -156.76070 25753 ft 404 kts 232°
2026-04-22 15:58 21.98105 -156.78390 25297 ft 401 kts 232°
2026-04-22 15:58 21.96327 -156.80692 24830 ft 399 kts 232°
2026-04-22 15:58 21.94556 -156.82992 24353 ft 397 kts 232°
2026-04-22 15:58 21.92801 -156.85267 23881 ft 393 kts 232°
2026-04-22 15:59 21.91066 -156.87507 23383 ft 388 kts 232°
2026-04-22 15:59 21.89348 -156.89726 22873 ft 383 kts 232°
2026-04-22 15:59 21.87656 -156.91912 22396 ft 378 kts 232°
2026-04-22 15:59 21.85977 -156.94072 21927 ft 375 kts 232°
2026-04-22 16:00 21.84310 -156.96218 21477 ft 372 kts 232°
2026-04-22 16:00 21.82659 -156.98349 21027 ft 369 kts 233°
2026-04-22 16:00 21.81019 -157.00467 20595 ft 367 kts 233°
2026-04-22 16:00 21.79385 -157.02572 20176 ft 364 kts 233°
2026-04-22 16:01 21.77789 -157.04627 19784 ft 361 kts 233°
2026-04-22 16:01 21.76183 -157.06698 19387 ft 359 kts 233°
2026-04-22 16:01 21.74584 -157.08761 18999 ft 358 kts 233°
2026-04-22 16:01 21.72996 -157.10806 18576 ft 356 kts 233°
2026-04-22 16:02 21.71415 -157.12839 18182 ft 353 kts 233°
2026-04-22 16:02 21.69850 -157.14850 17758 ft 348 kts 233°
2026-04-22 16:02 21.68299 -157.16843 17326 ft 346 kts 233°
2026-04-22 16:02 21.66761 -157.18821 16912 ft 343 kts 233°
2026-04-22 16:03 21.65235 -157.20786 16517 ft 341 kts 232°
2026-04-22 16:03 21.63723 -157.22731 16150 ft 337 kts 232°
2026-04-22 16:03 21.62224 -157.24656 15799 ft 334 kts 232°
2026-04-22 16:03 21.60742 -157.26560 15453 ft 330 kts 232°
2026-04-22 16:04 21.59269 -157.28449 15132 ft 328 kts 232°
2026-04-22 16:04 21.57801 -157.30329 14780 ft 329 kts 232°
2026-04-22 16:04 21.56343 -157.32199 14430 ft 330 kts 232°
2026-04-22 16:04 21.54869 -157.34089 14083 ft 331 kts 232°
2026-04-22 16:05 21.53884 -157.35352 13846 ft 331 kts 232°
2026-04-22 16:05 21.51905 -157.37887 13342 ft 332 kts 232°
2026-04-22 16:05 21.50419 -157.39789 12978 ft 332 kts 232°
2026-04-22 16:05 21.48939 -157.41684 12623 ft 332 kts 231°
2026-04-22 16:06 21.47454 -157.43583 12273 ft 331 kts 231°
2026-04-22 16:06 21.45995 -157.45451 11926 ft 331 kts 231°
2026-04-22 16:06 21.44498 -157.47367 11590 ft 330 kts 231°
2026-04-22 16:06 21.43043 -157.49226 11250 ft 330 kts 231°
2026-04-22 16:07 21.41573 -157.51101 10908 ft 329 kts 231°
2026-04-22 16:07 21.40106 -157.52970 10640 ft 322 kts 231°
2026-04-22 16:07 21.38687 -157.54781 10473 ft 311 kts 231°
2026-04-22 16:07 21.37315 -157.56531 10335 ft 300 kts 231°
2026-04-22 16:08 21.35993 -157.58216 10129 ft 292 kts 231°
2026-04-22 16:08 21.34693 -157.59876 9765 ft 289 kts 231°
2026-04-22 16:08 21.33417 -157.61503 9362 ft 285 kts 231°
2026-04-22 16:08 21.32136 -157.63137 9001 ft 283 kts 231°
2026-04-22 16:09 21.30879 -157.64742 8664 ft 280 kts 231°
2026-04-22 16:09 21.29631 -157.66328 8342 ft 276 kts 231°
2026-04-22 16:09 21.28403 -157.67889 8037 ft 272 kts 231°
2026-04-22 16:09 21.27209 -157.69407 7749 ft 268 kts 231°
2026-04-22 16:10 21.26002 -157.70944 7468 ft 264 kts 231°
2026-04-22 16:10 21.24852 -157.72404 7205 ft 255 kts 231°
2026-04-22 16:10 21.24090 -157.73373 7012 ft 249 kts 231°
2026-04-22 16:10 21.22634 -157.75243 6688 ft 246 kts 231°
2026-04-22 16:11 21.21539 -157.76654 6449 ft 246 kts 231°
2026-04-22 16:11 21.20443 -157.78066 6199 ft 245 kts 231°
2026-04-22 16:11 21.19358 -157.79470 5951 ft 245 kts 231°
2026-04-22 16:11 21.18275 -157.80880 5701 ft 244 kts 231°
2026-04-22 16:12 21.17199 -157.82280 5461 ft 244 kts 231°
2026-04-22 16:12 21.16120 -157.83684 5213 ft 243 kts 231°
2026-04-22 16:12 21.15049 -157.85085 4970 ft 242 kts 231°
2026-04-22 16:12 21.13988 -157.86479 4730 ft 242 kts 231°
2026-04-22 16:13 21.12925 -157.87879 4481 ft 243 kts 231°
2026-04-22 16:13 21.11864 -157.89282 4233 ft 243 kts 231°
2026-04-22 16:13 21.10809 -157.90687 3985 ft 241 kts 231°
2026-04-22 16:13 21.09772 -157.92074 3743 ft 242 kts 231°
2026-04-22 16:14 21.08722 -157.93489 3489 ft 243 kts 231°
2026-04-22 16:14 21.07678 -157.94908 3239 ft 242 kts 231°
2026-04-22 16:14 21.06640 -157.96320 2992 ft 242 kts 231°
2026-04-22 16:14 21.05613 -157.97752 2746 ft 242 kts 237°
2026-04-22 16:15 21.05034 -157.99380 2589 ft 226 kts 265°
2026-04-22 16:15 21.05178 -158.00958 2424 ft 206 kts 290°
2026-04-22 16:15 21.05892 -158.02244 2088 ft 201 kts 315°
2026-04-22 16:15 21.06993 -158.03140 1972 ft 197 kts 336°
2026-04-22 16:16 21.08268 -158.03630 1966 ft 196 kts 347°
2026-04-22 16:16 21.09579 -158.04065 1990 ft 197 kts 345°
2026-04-22 16:16 21.10878 -158.04513 2002 ft 196 kts 345°
2026-04-22 16:16 21.12172 -158.04969 2005 ft 196 kts 345°
2026-04-22 16:17 21.13450 -158.05422 2008 ft 196 kts 345°
2026-04-22 16:17 21.14741 -158.05882 2021 ft 195 kts 344°
2026-04-22 16:17 21.16024 -158.06339 2010 ft 195 kts 344°
2026-04-22 16:17 21.17312 -158.06795 2011 ft 196 kts 344°
2026-04-22 16:18 21.18611 -158.07254 2011 ft 197 kts 345°
2026-04-22 16:18 21.19912 -158.07684 2012 ft 194 kts 351°
2026-04-22 16:18 21.21206 -158.07495 2002 ft 191 kts 31°
2026-04-22 16:18 21.22058 -158.06438 2033 ft 189 kts 59°
2026-04-22 16:19 21.22765 -158.05255 2024 ft 188 kts 56°
2026-04-22 16:19 21.23259 -158.04498 2015 ft 188 kts 54°
2026-04-22 16:19 21.24043 -158.03374 2026 ft 188 kts 53°
2026-04-22 16:19 21.24830 -158.02257 2014 ft 187 kts 53°
2026-04-22 16:20 21.25621 -158.01139 2014 ft 189 kts 53°
2026-04-22 16:20 21.26673 -157.99656 1798 ft 186 kts 54°
2026-04-22 16:20 21.27197 -157.98915 1615 ft 183 kts 53°
2026-04-22 16:20 21.27946 -157.97832 1326 ft 178 kts 53°
2026-04-22 16:21 21.28677 -157.96785 1083 ft 173 kts 52°
2026-04-22 16:21 21.29393 -157.95772 845 ft 168 kts 52°
2026-04-22 16:21 21.30072 -157.94811 653 ft 150 kts 51°
2026-04-22 16:21 21.30658 -157.93971 429 ft 138 kts 51°
2026-04-22 16:22 21.31832 -157.92335 65 ft 143 kts 51°
2026-04-22 16:22 21.32405 -157.91523 30 ft 127 kts 51°
2026-04-22 16:22 21.33001 -157.90682 377 ft 157 kts 52°
2026-04-22 16:23 21.33837 -157.88344 1801 ft 200 kts 103°
2026-04-22 16:23 21.33017 -157.87090 2465 ft 221 kts 141°
2026-04-22 16:23 21.31519 -157.86532 2864 ft 237 kts 177°